When you browse on this site, cookies collect data to enhance your experience and personalize the content and advertising you see.
Visit our Privacy Policy to learn more. By continuing to use the site, you agree to this use of cookies and data.
  • En España
  • Lista de países
  • Para 7 días
  • Temperatura del agua
  • El tiempo en el mapa
  • Informadores
  • user-avatar
    Iniciar sesión

    Tiempo cada hora Kannyn

    Hoy, 4 Junio, Jueves

    Tiempo Temperatura Precipitaciones Viento Presión Humedad
    00:00 +21°C° 0 mm 3 mps 742 mmHg 85%
    01:00 +21°C° 0 mm 3 mps 742 mmHg 85%
    02:00 +21°C° 0 mm 3 mps 742 mmHg 85%
    03:00 +21°C° 0 mm 3 mps 742 mmHg 85%
    04:00 +21°C° 0 mm 4 mps 742 mmHg 85%
    05:00 +21°C° 0 mm 4 mps 742 mmHg 85%
    06:00 +21°C° 0 mm 5 mps 742 mmHg 85%
    07:00 +22°C° 0 mm 4 mps 742 mmHg 77%
    08:00 +25°C° 0 mm 4 mps 742 mmHg 68%
    09:00 +27°C° 0 mm 3 mps 743 mmHg 57%
    10:00 +28°C° 0 mm 3 mps 743 mmHg 53%
    11:00 +30°C° 0 mm 3 mps 743 mmHg 49%
    12:00 +31°C° 0 mm 3 mps 742 mmHg 45%
    13:00 +32°C° 0 mm 4 mps 742 mmHg 43%
    14:00 +33°C° 0 mm 4 mps 742 mmHg 41%
    15:00 +33°C° 0 mm 4 mps 742 mmHg 39%
    16:00 +32°C° 0 mm 4 mps 742 mmHg 44%
    17:00 +30°C° 0 mm 3 mps 742 mmHg 50%
    18:00 +29°C° 0 mm 3 mps 742 mmHg 55%
    19:00 +27°C° 0 mm 3 mps 742 mmHg 65%
    20:00 +25°C° 0 mm 3 mps 743 mmHg 75%
    21:00 +22°C° 0 mm 3 mps 743 mmHg 82%
    22:00 +22°C° 0 mm 3 mps 743 mmHg 85%
    23:00 +21°C° 0 mm 3 mps 744 mmHg 88%

    Mañana, 5 Junio, Viernes

    Tiempo Temperatura Precipitaciones Viento Presión Humedad
    00:00 +21°C° 0 mm 2 mps 744 mmHg 91%
    01:00 +21°C° 0 mm 2 mps 744 mmHg 91%
    02:00 +20°C° 0 mm 2 mps 744 mmHg 91%
    03:00 +20°C° 0 mm 2 mps 744 mmHg 92%
    04:00 +20°C° 0 mm 2 mps 745 mmHg 91%
    05:00 +20°C° 0 mm 2 mps 745 mmHg 91%
    06:00 +20°C° 0 mm 2 mps 745 mmHg 90%
    07:00 +22°C° 0 mm 3 mps 746 mmHg 80%
    08:00 +25°C° 0 mm 3 mps 746 mmHg 69%
    09:00 +27°C° 0 mm 4 mps 746 mmHg 59%
    10:00 +27°C° 0 mm 4 mps 746 mmHg 55%
    11:00 +28°C° 0 mm 4 mps 746 mmHg 51%
    12:00 +29°C° 0 mm 4 mps 747 mmHg 47%
    13:00 +29°C° 0 mm 4 mps 746 mmHg 48%
    14:00 +28°C° 0 mm 3 mps 746 mmHg 49%
    15:00 +28°C° 0 mm 3 mps 746 mmHg 50%
    16:00 +26°C° 0 mm 3 mps 746 mmHg 57%
    17:00 +25°C° 0 mm 2 mps 746 mmHg 64%
    18:00 +23°C° 0 mm 2 mps 746 mmHg 71%
    19:00 +21°C° 0 mm 2 mps 747 mmHg 77%
    20:00 +20°C° 0 mm 1 mps 747 mmHg 82%
    21:00 +19°C° 0 mm 1 mps 747 mmHg 87%
    22:00 +19°C° 0 mm 1 mps 748 mmHg 85%
    23:00 +19°C° 0 mm 1 mps 748 mmHg 82%

    Pasado mañana, 6 Junio, Sábado

    Tiempo Temperatura Precipitaciones Viento Presión Humedad
    00:00 +17°C° 0 mm 0 mps 749 mmHg 80%
    01:00 +16°C° 0 mm 0 mps 748 mmHg 79%
    02:00 +16°C° 0 mm 0 mps 748 mmHg 78%
    03:00 +18°C° 0 mm 1 mps 748 mmHg 77%
    04:00 +18°C° 0 mm 1 mps 748 mmHg 76%
    05:00 +18°C° 0 mm 1 mps 749 mmHg 75%
    06:00 +19°C° 0 mm 1 mps 749 mmHg 73%
    07:00 +21°C° 0 mm 1 mps 749 mmHg 67%
    08:00 +23°C° 0 mm 1 mps 749 mmHg 61%
    09:00 +26°C° 0 mm 2 mps 749 mmHg 55%
    10:00 +26°C° 0 mm 2 mps 749 mmHg 55%
    11:00 +27°C° 0 mm 2 mps 749 mmHg 55%
    12:00 +28°C° 0 mm 2 mps 749 mmHg 55%
    13:00 +27°C° 0.1 mm 2 mps 749 mmHg 62%
    14:00 +26°C° 0.1 mm 3 mps 748 mmHg 69%
    15:00 +25°C° 0.1 mm 3 mps 748 mmHg 76%
    16:00 +25°C° 0.3 mm 3 mps 748 mmHg 78%
    17:00 +24°C° 0.3 mm 3 mps 748 mmHg 80%
    18:00 +24°C° 0.3 mm 3 mps 748 mmHg 82%
    19:00 +21°C° 0 mm 3 mps 748 mmHg 85%
    20:00 +20°C° 0 mm 2 mps 749 mmHg 88%
    21:00 +19°C° 0 mm 2 mps 749 mmHg 91%
    22:00 +19°C° 0 mm 2 mps 749 mmHg 91%
    23:00 +18°C° 0 mm 2 mps 749 mmHg 90%

    7 Junio, Domingo

    Tiempo Temperatura Precipitaciones Viento Presión Humedad
    00:00 +18°C° 0 mm 2 mps 750 mmHg 90%
    01:00 +18°C° 0 mm 2 mps 750 mmHg 90%
    02:00 +18°C° 0 mm 2 mps 750 mmHg 90%
    03:00 +18°C° 0 mm 2 mps 749 mmHg 90%
    04:00 +18°C° 0 mm 2 mps 750 mmHg 89%
    05:00 +18°C° 0 mm 2 mps 750 mmHg 89%
    06:00 +19°C° 0 mm 1 mps 750 mmHg 88%
    07:00 +22°C° 0 mm 1 mps 750 mmHg 80%
    08:00 +24°C° 0 mm 1 mps 750 mmHg 71%
    09:00 +27°C° 0 mm 1 mps 750 mmHg 62%
    10:00 +28°C° 0 mm 2 mps 750 mmHg 57%
    11:00 +30°C° 0 mm 2 mps 750 mmHg 53%
    12:00 +31°C° 0 mm 3 mps 750 mmHg 48%
    13:00 +31°C° 0 mm 3 mps 749 mmHg 47%
    14:00 +32°C° 0 mm 4 mps 749 mmHg 47%
    15:00 +32°C° 0 mm 4 mps 749 mmHg 46%
    16:00 +30°C° 0 mm 4 mps 749 mmHg 50%
    17:00 +29°C° 0 mm 4 mps 749 mmHg 54%
    18:00 +29°C° 0 mm 4 mps 748 mmHg 58%
    19:00 +27°C° 0 mm 4 mps 749 mmHg 62%
    20:00 +25°C° 0 mm 4 mps 749 mmHg 67%
    21:00 +22°C° 0 mm 4 mps 749 mmHg 71%
    22:00 +22°C° 0 mm 4 mps 749 mmHg 69%
    23:00 +21°C° 0 mm 4 mps 750 mmHg 68%

    8 Junio, Lunes

    Tiempo Temperatura Precipitaciones Viento Presión Humedad
    00:00 +21°C° 0 mm 3 mps 750 mmHg 67%
    01:00 +20°C° 0 mm 3 mps 750 mmHg 69%
    02:00 +20°C° 0 mm 3 mps 750 mmHg 70%
    03:00 +20°C° 0 mm 3 mps 750 mmHg 72%
    04:00 +20°C° 0 mm 3 mps 750 mmHg 74%
    05:00 +20°C° 0 mm 3 mps 750 mmHg 75%
    06:00 +20°C° 0 mm 3 mps 750 mmHg 76%
    07:00 +22°C° 0 mm 3 mps 750 mmHg 69%
    08:00 +26°C° 0 mm 2 mps 750 mmHg 61%
    09:00 +28°C° 0 mm 1 mps 751 mmHg 54%
    10:00 +30°C° 0 mm 2 mps 751 mmHg 49%
    11:00 +34°C° 0 mm 2 mps 750 mmHg 44%
    12:00 +36°C° 0 mm 2 mps 750 mmHg 39%
    13:00 +36°C° 0 mm 2 mps 750 mmHg 39%
    14:00 +36°C° 0 mm 3 mps 750 mmHg 40%
    15:00 +36°C° 0 mm 3 mps 749 mmHg 40%
    16:00 +35°C° 0 mm 3 mps 749 mmHg 45%
    17:00 +34°C° 0 mm 3 mps 749 mmHg 51%
    18:00 +33°C° 0 mm 3 mps 749 mmHg 56%
    19:00 +30°C° 0 mm 3 mps 750 mmHg 62%
    20:00 +28°C° 0 mm 3 mps 750 mmHg 69%
    21:00 +25°C° 0 mm 2 mps 750 mmHg 76%
    22:00 +25°C° 0 mm 2 mps 751 mmHg 77%
    23:00 +24°C° 0 mm 3 mps 751 mmHg 78%

    9 Junio, Martes

    Tiempo Temperatura Precipitaciones Viento Presión Humedad
    00:00 +24°C° 0 mm 3 mps 751 mmHg 80%
    01:00 +22°C° 0 mm 3 mps 751 mmHg 81%
    02:00 +22°C° 0 mm 3 mps 751 mmHg 82%
    03:00 +22°C° 0 mm 3 mps 751 mmHg 83%
    04:00 +23°C° 0 mm 2 mps 751 mmHg 83%
    05:00 +23°C° 0 mm 2 mps 751 mmHg 83%
    06:00 +23°C° 0 mm 2 mps 751 mmHg 84%
    07:00 +26°C° 0 mm 2 mps 751 mmHg 74%
    08:00 +29°C° 0 mm 1 mps 751 mmHg 64%
    09:00 +31°C° 0 mm 1 mps 752 mmHg 55%
    10:00 +34°C° 0 mm 2 mps 752 mmHg 51%
    11:00 +35°C° 0 mm 2 mps 751 mmHg 47%
    12:00 +36°C° 0 mm 2 mps 751 mmHg 44%
    13:00 +36°C° 0 mm 2 mps 751 mmHg 45%
    14:00 +35°C° 0 mm 2 mps 751 mmHg 47%
    15:00 +35°C° 0 mm 2 mps 751 mmHg 48%
    16:00 +34°C° 0 mm 2 mps 751 mmHg 54%
    17:00 +32°C° 0 mm 2 mps 750 mmHg 59%
    18:00 +31°C° 0 mm 2 mps 750 mmHg 65%
    19:00 +29°C° 0 mm 1 mps 750 mmHg 67%
    20:00 +28°C° 0 mm 1 mps 751 mmHg 69%
    21:00 +26°C° 0 mm 1 mps 751 mmHg 71%
    22:00 +26°C° 0 mm 1 mps 751 mmHg 72%
    23:00 +25°C° 0 mm 2 mps 751 mmHg 72%
    Mostrar más